[Iaude] MPEC H104: 2024 HA2 [a=2.35,e=0.53,i=1.8,H=24.3]
    mpec at cfa.harvard.edu 
    mpec at cfa.harvard.edu
       
    Tue Apr 30 13:52:54 EDT 2024
    
    
  
M.P.E.C. 2024-H104                               Issued 2024 April 30, 17:51 UT
     The Minor Planet Electronic Circulars contain information on unusual
         minor planets, routine data on comets and natural satellites,
         and occasional editorial announcements.  They are published
    on behalf of Division F of the International Astronomical Union by the
          Minor Planet Center, Smithsonian Astrophysical Observatory,
                          Cambridge, MA 02138, U.S.A.
			  
             Prepared using the Tamkin Foundation Computer Network
                              MPC at CFA.HARVARD.EDU
            URL https://www.minorplanetcenter.net/    ISSN 1523-6714
                                    2024 HA2                                    
Observations:
     K24H02A*1C2024 04 28.17580312 32 28.680-05 50 07.26         20.61GVEH104G96
     K24H02A 1C2024 04 28.18139512 32 30.174-05 50 11.80         20.49GVEH104G96
     K24H02A 1C2024 04 28.18698912 32 31.592-05 50 15.40         21.24GVEH104G96
     K24H02A 1C2024 04 28.19259312 32 33.126-05 50 19.93         20.86GVEH104G96
     K24H02A KC2024 04 29.14565112 37 19.762-06 02 39.16         20.57GVEH104I52
     K24H02A KC2024 04 29.14823612 37 20.482-06 02 41.35         20.55GVEH104I52
     K24H02A KC2024 04 29.15079712 37 21.198-06 02 43.58         20.55GVEH104I52
     K24H02A KC2024 04 29.15335012 37 21.925-06 02 45.42         20.32GVEH104I52
     K24H02A KB2024 04 29.21358 12 37 37.680-06 03 40.90         20.4 RZEH104H36
     K24H02A KB2024 04 29.23145 12 37 42.718-06 03 55.01         20.0 RZEH104H36
     K24H02A mC2024 04 30.17069712 42 43.322-06 16 38.68         21.01GVEH104I52
     K24H02A mC2024 04 30.17175212 42 43.614-06 16 39.79         20.12GVEH104I52
     K24H02A mC2024 04 30.17280412 42 43.945-06 16 40.62         21.64GVEH104I52
     K24H02A mC2024 04 30.17403012 42 44.316-06 16 41.74         20.27GVEH104I52
Observer details:
G96 Mt. Lemmon Survey.  Observer T. Beuden.  Measurers T. Beuden, V. F.
    Carvajal, D. Fay, J. B. Fazekas, D. C. Fuls, A. R. Gibbs, A. D. Grauer, H.
    Groeller, J. K. Hogan, R. A. Kowalski, S. M. Larson, G. J. Leonard, D.
    Rankin, R. L. Seaman, F. C. Shelly, K. W. Wierzchos.  1.5-m reflector +
    10K CCD.
H36 Sandlot Observatory, Scranton.  Observer G. Hug.  0.56-m f/4.8 reflector +
    CMO.
I52 Steward Observatory, Mt. Lemmon Station.  Observers R. A. Kowalski, V. F.
    Carvajal, G. J. Leonard.  Measurers T. Beuden, V. F. Carvajal, D. Fay, J.
    B. Fazekas, D. C. Fuls, A. R. Gibbs, A. D. Grauer, H. Groeller, J. K.
    Hogan, R. A. Kowalski, S. M. Larson, G. J. Leonard, D. Rankin, R. L.
    Seaman, F. C. Shelly, K. W. Wierzchos.  1.0-m prime focus + CCD.
Orbital elements:
2024 HA2                                                 Earth MOID = 0.0846 AU
Epoch 2024 Mar. 31.0 TT = JDT 2460400.5                 Bell                    
M 348.78125              (2000.0)            P               Q                  
n   0.27329922     Peri.    6.89456     -0.65667048     +0.75388461             
a   2.3516740      Node   222.06201     -0.69343409     -0.61450505             
e   0.5346059      Incl.    1.79809     -0.29653507     -0.23246837             
P   3.61           H   24.33          G   0.15           U   9                  
Residuals in seconds of arc
240428 G96  0.1+  0.2-    240429 I52  0.0   0.0     240430 I52  0.1+  0.1+
240428 G96  0.3+  0.4-    240429 I52  0.1-  0.1-    240430 I52  0.2-  0.1-
240428 G96  0.6-  0.3+    240429 I52  0.0   0.2+    240430 I52  0.0   0.0
240428 G96  0.2+  0.0     240429 H36  0.2+  0.2+    240430 I52  0.1+  0.1-
240429 I52  0.1+  0.1+    240429 H36  0.0   0.2+
Ephemeris:
2024 HA2                 a,e,i = 2.35, 0.53, 2                   q = 1.0945
Date    TT    R. A. (2000) Decl.     Delta      r    Elong.  Phase     V
2024 03 31    11 31 47.8 -03 23 07   0.2058  1.1976   163.4    13.8    22.1
...
2024 04 15    11 48 53.2 -03 59 46   0.1483  1.1378   153.5    23.2    21.6
...
2024 04 23    12 10 49.0 -04 53 32   0.1239  1.1156   151.2    25.7    21.2
...
2024 04 29    12 36 32.6 -05 59 54   0.1086  1.1040   151.9    25.5    20.9
2024 04 30    12 41 46.1 -06 13 24   0.1063  1.1025   152.2    25.2    20.8
2024 05 01    12 47 17.0 -06 27 37   0.1042  1.1011   152.6    24.9    20.8
...
2024 05 07    13 26 40.5 -08 06 15   0.09363 1.0955   156.4    21.6    20.4
...
2024 05 15    14 34 04.5 -10 34 26   0.08749 1.0955   164.6    14.2    20.0
...
2024 05 30    16 38 59.5 -13 25 21   0.1051  1.1177   171.3     7.9    20.2
M. P. C. Staff               (C) Copyright 2024 MPC           M.P.E.C. 2024-H104
    
    
More information about the Iaude
mailing list